Weather History for Los Alamitos, CA

Change the Weather History Date:

Friday, October 19, 2012

  Actual Average Record
Temperature  
Mean Temperature 68 °F -  
Max Temperature 78 °F 75 °F 87 °F (1999)
Min Temperature 60 °F 59 °F 50 °F (2006)
Cooling Degree Days 4    
Growing Degree Days 18 (Base 50)    
Moisture  
Dew Point 65 °F    
Average Humidity 96    
Maximum Humidity 100    
Minimum Humidity 68    
Precipitation  
Precipitation 0.00 in - - ()
Sea Level Pressure  
Sea Level Pressure 29.98 in    
Wind  
Wind Speed 1 mph (West)    
Max Wind Speed 14 mph    
Max Gust Speed -    
Visibility 6 miles    
Events      
Averages and records for this station are not official NWS values.
T = Trace of Precipitation, MM = Missing Value Source: NWS Daily Summary

Daily Weather History Graph

Daily Weather History Graph

Search for Another Location

Airport:

Trip Planner

Search our weather history database for the weather conditions in past years. The results will help you decide how hot, cold, wet, or windy it might be!

Date:

Astronomy

Oct. 19, 2012 Rise Set
Actual Time 7:00 AM PDT 6:12 PM PDT
Civil Twilight 6:35 AM PDT 6:38 PM PDT
Nautical Twilight 6:06 AM PDT 7:07 PM PDT
Astronomical Twilight 5:37 AM PDT 7:36 PM PDT
Moon 11:38 AM PDT (10/19) 10:05 PM PDT (10/19)
Length of Visible Light 12h 02m
Length of Day
11h 12m
Waxing Crescent, 24% of the Moon is Illuminated
Oct 19
Waxing Crescent
Oct 21
First Quarter
Oct 29
Full
Nov 6
Last Quarter
Nov 13
New

Hourly Weather History & Observations

Time (PDT) Temp. Dew Point Humidity Pressure Visibility Wind Dir Wind Speed Gust Speed Precip Events Conditions
12:28 AM 64.4 °F 64.4 °F 100% 30.02 in 2.0 mi Calm Calm - N/A   Clear
12:29 AM 64.4 °F 64.4 °F 100% 30.02 in 1.2 mi Calm Calm - N/A   Clear
12:30 AM 64.4 °F 64.4 °F 100% 30.02 in 1.0 mi Calm Calm - N/A   Clear
12:38 AM 64.4 °F 64.4 °F 100% 30.02 in 1.2 mi Calm Calm - N/A   Clear
12:39 AM 64.4 °F 64.4 °F 100% 30.02 in 2.0 mi Calm Calm - N/A   Clear
12:40 AM 64.4 °F 64.4 °F 100% 30.02 in 3.0 mi Calm Calm - N/A   Partly Cloudy
12:45 AM 64.4 °F 64.4 °F 100% 30.02 in 2.5 mi Calm Calm - N/A   Partly Cloudy
12:50 AM 64.4 °F 64.4 °F 100% 30.02 in 3.0 mi Calm Calm - N/A   Partly Cloudy
12:55 AM 64.8 °F 64.8 °F 100% 30.02 in 8.0 mi Calm Calm - N/A   Scattered Clouds
1:04 AM 64.4 °F 64.4 °F 100% 30.02 in 2.0 mi Calm Calm - N/A   Scattered Clouds
1:05 AM 64.4 °F 64.4 °F 100% 30.02 in 1.5 mi Calm Calm - N/A   Scattered Clouds
1:06 AM 64.4 °F 64.4 °F 100% 30.02 in 1.2 mi Calm Calm - N/A   Scattered Clouds
1:07 AM 64.4 °F 64.4 °F 100% 30.02 in 1.0 mi Calm Calm - N/A   Scattered Clouds
1:08 AM 64.4 °F 64.4 °F 100% 30.02 in 1.0 mi Calm Calm - N/A   Mostly Cloudy
1:09 AM 64.4 °F 64.4 °F 100% 30.02 in 0.8 mi Calm Calm - N/A   Scattered Clouds
1:10 AM 64.4 °F 64.4 °F 100% 30.02 in 0.8 mi Calm Calm - N/A   Mostly Cloudy
1:14 AM 64.4 °F 64.4 °F 100% 30.02 in 1.0 mi Calm Calm - N/A   Mostly Cloudy
1:15 AM 64.4 °F 64.4 °F 100% 30.02 in 1.2 mi Calm Calm - N/A   Mostly Cloudy
1:16 AM 64.4 °F 64.4 °F 100% 30.02 in 1.5 mi Calm Calm - N/A   Mostly Cloudy
1:18 AM 64.4 °F 64.4 °F 100% 30.02 in 2.5 mi Calm Calm - N/A   Mostly Cloudy
1:19 AM 64.4 °F 64.4 °F 100% 30.02 in 4.0 mi Calm Calm - N/A   Mostly Cloudy
2:16 AM 68.0 °F 68.0 °F 100% 30.01 in 10.0 mi NW 3.5 mph - N/A   Overcast
2:55 AM 67.6 °F 67.6 °F 100% 30.01 in 10.0 mi NNW 3.5 mph - N/A   Overcast
3:16 AM 66.2 °F 66.2 °F 100% 29.99 in 10.0 mi NNW 4.6 mph - N/A   Scattered Clouds
3:55 AM 66.2 °F 66.2 °F 100% 29.98 in 10.0 mi North 3.5 mph - N/A   Clear
4:55 AM 63.9 °F 63.9 °F 100% 29.98 in 9.0 mi Calm Calm - N/A   Clear
5:10 AM 62.6 °F 62.6 °F 100% 29.98 in 2.5 mi Calm Calm - N/A   Clear
5:14 AM 62.6 °F 62.6 °F 100% 29.98 in 1.8 mi Calm Calm - N/A   Clear
5:19 AM 62.6 °F 62.6 °F 100% 29.98 in 2.0 mi Calm Calm - N/A   Clear
5:28 AM 62.6 °F 62.6 °F 100% 29.97 in 3.0 mi Calm Calm - N/A   Clear
5:55 AM 61.5 °F 61.5 °F 100% 29.98 in 9.0 mi Calm Calm - N/A   Clear
6:55 AM 60.8 °F 60.8 °F 100% 29.98 in 4.0 mi Calm Calm - N/A   Partly Cloudy
7:55 AM 62.2 °F 62.2 °F 100% 29.99 in 7.0 mi Calm Calm - N/A   Scattered Clouds
8:12 AM 64.4 °F 64.4 °F 100% 30.00 in 7.0 mi Calm Calm - N/A   Mostly Cloudy
8:16 AM 64.4 °F 64.4 °F 100% 30.00 in 7.0 mi Calm Calm - N/A   Mostly Cloudy
8:52 AM 68.0 °F 68.0 °F 100% 30.01 in 10.0 mi WNW 3.5 mph - N/A   Scattered Clouds
8:55 AM 68.0 °F 68.0 °F 100% 30.01 in 10.0 mi NW 4.6 mph - N/A   Scattered Clouds
9:55 AM 71.4 °F 67.1 °F 86% 30.00 in 10.0 mi Calm Calm - N/A   Scattered Clouds
10:55 AM 72.9 °F 68.2 °F 85% 29.99 in 10.0 mi SW 9.2 mph - N/A   Scattered Clouds
11:55 AM 75.2 °F 67.8 °F 78% 29.97 in 10.0 mi SSW 6.9 mph - N/A   Partly Cloudy
12:55 PM 76.3 °F 67.5 °F 74% 29.95 in 10.0 mi SSW 9.2 mph - N/A   Clear
1:55 PM 77.5 °F 66.4 °F 68% 29.92 in 10.0 mi WSW 11.5 mph - N/A   Clear
2:55 PM 77.0 °F 65.7 °F 68% 29.90 in 10.0 mi WNW 8.1 mph - N/A   Partly Cloudy
3:55 PM 73.0 °F 66.7 °F 81% 29.89 in 10.0 mi SW 13.8 mph - N/A   Partly Cloudy
4:55 PM 71.8 °F 66.6 °F 84% 29.89 in 10.0 mi SW 12.7 mph - N/A   Partly Cloudy
5:26 PM 69.8 °F 66.2 °F 88% 29.89 in 10.0 mi SW 12.7 mph - N/A   Mostly Cloudy
5:55 PM 69.1 °F 66.4 °F 91% 29.90 in 10.0 mi West 4.6 mph - N/A   Mostly Cloudy
6:55 PM 67.6 °F 66.2 °F 95% 29.91 in 10.0 mi NW 3.5 mph - N/A   Overcast
7:55 PM 67.8 °F 66.4 °F 95% 29.91 in 10.0 mi WNW 4.6 mph - N/A   Overcast
8:55 PM 67.5 °F 66.4 °F 96% 29.91 in 10.0 mi Calm Calm - N/A   Overcast
9:40 PM 68.0 °F 66.2 °F 94% 29.92 in 10.0 mi Calm Calm - N/A   Overcast
9:55 PM 67.5 °F 67.1 °F 99% 29.92 in 10.0 mi Calm Calm - N/A   Overcast
11:20 PM 68.0 °F 66.2 °F 94% 29.91 in 10.0 mi Calm Calm - N/A   Overcast
11:29 PM 68.0 °F 66.2 °F 94% 29.91 in 10.0 mi SSW 4.6 mph - N/A   Overcast
11:36 PM 68.0 °F 66.2 °F 94% 29.91 in 10.0 mi Calm Calm - N/A   Overcast
11:55 PM 67.3 °F 66.0 °F 96% 29.91 in 10.0 mi Calm Calm - N/A   Overcast